owner,sensor,date,latitude,longitude,air_temperature,qcFlag 
DISL,ioos:station:DISL:MHPA:1,2009-12-01T00:00:00Z,30.6671,-87.9365,13.48,1111122 
DISL,ioos:station:DISL:MHPA:1,2009-12-01T00:30:00Z,30.6671,-87.9365,12.69,1111122 
DISL,ioos:station:DISL:MHPA:1,2009-12-01T01:00:00Z,30.6671,-87.9365,12.3,1111122 
DISL,ioos:station:DISL:MHPA:1,2009-12-01T01:30:00Z,30.6671,-87.9365,11.59,1111122 
DISL,ioos:station:DISL:MHPA:1,2009-12-01T02:00:00Z,30.6671,-87.9365,11.14,1111122 
DISL,ioos:station:DISL:MHPA:1,2009-12-01T02:30:00Z,30.6671,-87.9365,10.73,1111122 
DISL,ioos:station:DISL:MHPA:1,2009-12-01T03:00:00Z,30.6671,-87.9365,10.07,1111122 
DISL,ioos:station:DISL:MHPA:1,2009-12-01T03:30:00Z,30.6671,-87.9365,9.6,1111122 
DISL,ioos:station:DISL:MHPA:1,2009-12-01T04:00:00Z,30.6671,-87.9365,9.32,1111122 
DISL,ioos:station:DISL:MHPA:1,2009-12-01T04:30:00Z,30.6671,-87.9365,8.9,1111122 
DISL,ioos:station:DISL:MHPA:1,2009-12-01T05:00:00Z,30.6671,-87.9365,8.43,1111122 
DISL,ioos:station:DISL:MHPA:1,2009-12-01T05:30:00Z,30.6671,-87.9365,8.14,1111122 
DISL,ioos:station:DISL:MHPA:1,2009-12-01T06:00:00Z,30.6671,-87.9365,8.18,1111122 
DISL,ioos:station:DISL:MHPA:1,2009-12-01T06:30:00Z,30.6671,-87.9365,7.99,1111122 
DISL,ioos:station:DISL:MHPA:1,2009-12-01T07:00:00Z,30.6671,-87.9365,7.73,1111122 
DISL,ioos:station:DISL:MHPA:1,2009-12-01T07:30:00Z,30.6671,-87.9365,7.34,1111122 
DISL,ioos:station:DISL:MHPA:1,2009-12-01T08:00:00Z,30.6671,-87.9365,7.02,1111122 
DISL,ioos:station:DISL:MHPA:1,2009-12-01T08:30:00Z,30.6671,-87.9365,6.851,1111122 
DISL,ioos:station:DISL:MHPA:1,2009-12-01T09:00:00Z,30.6671,-87.9365,6.851,1111122 
DISL,ioos:station:DISL:MHPA:1,2009-12-01T09:30:00Z,30.6671,-87.9365,7.03,1111122 
DISL,ioos:station:DISL:MHPA:1,2009-12-01T10:00:00Z,30.6671,-87.9365,6.966,1111122 
DISL,ioos:station:DISL:MHPA:1,2009-12-01T10:30:00Z,30.6671,-87.9365,6.869,1111122 
DISL,ioos:station:DISL:MHPA:1,2009-12-01T11:00:00Z,30.6671,-87.9365,6.858,1111122 
DISL,ioos:station:DISL:MHPA:1,2009-12-01T11:30:00Z,30.6671,-87.9365,6.755,1111122 
DISL,ioos:station:DISL:MHPA:1,2009-12-01T12:00:00Z,30.6671,-87.9365,6.561,1111122 
DISL,ioos:station:DISL:MHPA:1,2009-12-01T12:30:00Z,30.6671,-87.9365,6.734,1111122 
DISL,ioos:station:DISL:MHPA:1,2009-12-01T13:00:00Z,30.6671,-87.9365,6.638,1111122 
DISL,ioos:station:DISL:MHPA:1,2009-12-01T13:30:00Z,30.6671,-87.9365,6.695,1111122 
DISL,ioos:station:DISL:MHPA:1,2009-12-01T14:00:00Z,30.6671,-87.9365,6.927,1111122 
DISL,ioos:station:DISL:MHPA:1,2009-12-01T14:30:00Z,30.6671,-87.9365,7.13,1111122 
DISL,ioos:station:DISL:MHPA:1,2009-12-01T15:00:00Z,30.6671,-87.9365,7.5,1111122 
DISL,ioos:station:DISL:MHPA:1,2009-12-01T15:30:00Z,30.6671,-87.9365,7.84,1111122 
DISL,ioos:station:DISL:MHPA:1,2009-12-01T16:00:00Z,30.6671,-87.9365,8.03,1111122 
DISL,ioos:station:DISL:MHPA:1,2009-12-01T16:30:00Z,30.6671,-87.9365,7.96,1111122 
DISL,ioos:station:DISL:MHPA:1,2009-12-01T17:00:00Z,30.6671,-87.9365,7.96,1111122 
DISL,ioos:station:DISL:MHPA:1,2009-12-01T17:30:00Z,30.6671,-87.9365,7.84,1111122 
DISL,ioos:station:DISL:MHPA:1,2009-12-01T18:00:00Z,30.6671,-87.9365,8.08,1111122 
DISL,ioos:station:DISL:MHPA:1,2009-12-01T18:30:00Z,30.6671,-87.9365,8.16,1111122 
DISL,ioos:station:DISL:MHPA:1,2009-12-01T19:00:00Z,30.6671,-87.9365,8.5,1111122 
DISL,ioos:station:DISL:MHPA:1,2009-12-01T19:30:00Z,30.6671,-87.9365,8.48,1111122 
DISL,ioos:station:DISL:MHPA:1,2009-12-01T20:00:00Z,30.6671,-87.9365,8.59,1111122 
DISL,ioos:station:DISL:MHPA:1,2009-12-01T20:30:00Z,30.6671,-87.9365,8.73,1111122 
DISL,ioos:station:DISL:MHPA:1,2009-12-01T21:00:00Z,30.6671,-87.9365,8.85,1111122 
DISL,ioos:station:DISL:MHPA:1,2009-12-01T21:30:00Z,30.6671,-87.9365,8.79,1111122 
DISL,ioos:station:DISL:MHPA:1,2009-12-01T22:00:00Z,30.6671,-87.9365,8.93,1111122 
DISL,ioos:station:DISL:MHPA:1,2009-12-01T22:30:00Z,30.6671,-87.9365,9.14,1111122 
DISL,ioos:station:DISL:MHPA:1,2009-12-01T23:00:00Z,30.6671,-87.9365,9.58,1111122 
DISL,ioos:station:DISL:MHPA:1,2009-12-01T23:30:00Z,30.6671,-87.9365,10.08,1111122 
DISL,ioos:station:DISL:MHPA:1,2009-12-02T00:00:00Z,30.6671,-87.9365,10.62,1111122 
DISL,ioos:station:DISL:MHPA:1,2009-12-02T00:30:00Z,30.6671,-87.9365,11.25,1111122 
DISL,ioos:station:DISL:MHPA:1,2009-12-02T01:00:00Z,30.6671,-87.9365,11.69,1111122 
DISL,ioos:station:DISL:MHPA:1,2009-12-02T01:30:00Z,30.6671,-87.9365,12.34,1111122 
DISL,ioos:station:DISL:MHPA:1,2009-12-02T02:00:00Z,30.6671,-87.9365,12.84,1111122 
DISL,ioos:station:DISL:MHPA:1,2009-12-02T02:30:00Z,30.6671,-87.9365,13.27,1111122 
DISL,ioos:station:DISL:MHPA:1,2009-12-02T03:00:00Z,30.6671,-87.9365,13.82,1111122 
DISL,ioos:station:DISL:MHPA:1,2009-12-02T03:30:00Z,30.6671,-87.9365,14.45,1111122 
DISL,ioos:station:DISL:MHPA:1,2009-12-02T04:00:00Z,30.6671,-87.9365,15.14,1111122 
DISL,ioos:station:DISL:MHPA:1,2009-12-02T04:30:00Z,30.6671,-87.9365,18.69,1111122 
DISL,ioos:station:DISL:MHPA:1,2009-12-02T05:00:00Z,30.6671,-87.9365,13.96,1111122 
DISL,ioos:station:DISL:MHPA:1,2009-12-02T05:30:00Z,30.6671,-87.9365,12.57,1111122 
DISL,ioos:station:DISL:MHPA:1,2009-12-02T06:00:00Z,30.6671,-87.9365,12.46,1111122 
DISL,ioos:station:DISL:MHPA:1,2009-12-02T06:30:00Z,30.6671,-87.9365,12.67,1111122 
DISL,ioos:station:DISL:MHPA:1,2009-12-02T07:00:00Z,30.6671,-87.9365,12.7,1111122 
DISL,ioos:station:DISL:MHPA:1,2009-12-02T07:30:00Z,30.6671,-87.9365,12.39,1111122 
DISL,ioos:station:DISL:MHPA:1,2009-12-02T08:00:00Z,30.6671,-87.9365,12.45,1111122 
DISL,ioos:station:DISL:MHPA:1,2009-12-02T08:30:00Z,30.6671,-87.9365,12.5,1111122 
DISL,ioos:station:DISL:MHPA:1,2009-12-02T09:00:00Z,30.6671,-87.9365,12.82,1111122 
DISL,ioos:station:DISL:MHPA:1,2009-12-02T09:30:00Z,30.6671,-87.9365,15.49,1111122 
DISL,ioos:station:DISL:MHPA:1,2009-12-02T10:00:00Z,30.6671,-87.9365,13.64,1111122 
DISL,ioos:station:DISL:MHPA:1,2009-12-02T10:30:00Z,30.6671,-87.9365,15.84,1111122 
DISL,ioos:station:DISL:MHPA:1,2009-12-02T11:00:00Z,30.6671,-87.9365,15.86,1111122 
DISL,ioos:station:DISL:MHPA:1,2009-12-02T11:30:00Z,30.6671,-87.9365,16.77,1111122 
DISL,ioos:station:DISL:MHPA:1,2009-12-02T12:00:00Z,30.6671,-87.9365,16.73,1111122 
DISL,ioos:station:DISL:MHPA:1,2009-12-02T12:30:00Z,30.6671,-87.9365,17.38,1111122 
DISL,ioos:station:DISL:MHPA:1,2009-12-02T13:00:00Z,30.6671,-87.9365,17.55,1111122 
DISL,ioos:station:DISL:MHPA:1,2009-12-02T13:30:00Z,30.6671,-87.9365,18.58,1111122 
DISL,ioos:station:DISL:MHPA:1,2009-12-02T14:00:00Z,30.6671,-87.9365,19.26,1111122 
DISL,ioos:station:DISL:MHPA:1,2009-12-02T14:30:00Z,30.6671,-87.9365,18.14,1111122 
DISL,ioos:station:DISL:MHPA:1,2009-12-02T15:00:00Z,30.6671,-87.9365,17.38,1111122 
DISL,ioos:station:DISL:MHPA:1,2009-12-02T15:30:00Z,30.6671,-87.9365,18.14,1111122 
DISL,ioos:station:DISL:MHPA:1,2009-12-02T16:00:00Z,30.6671,-87.9365,17.42,1111122 
DISL,ioos:station:DISL:MHPA:1,2009-12-02T16:30:00Z,30.6671,-87.9365,16.92,1111122 
DISL,ioos:station:DISL:MHPA:1,2009-12-02T17:00:00Z,30.6671,-87.9365,16.23,1111122 
DISL,ioos:station:DISL:MHPA:1,2009-12-02T17:30:00Z,30.6671,-87.9365,16.37,1111122 
DISL,ioos:station:DISL:MHPA:1,2009-12-02T18:00:00Z,30.6671,-87.9365,16.56,1111122 
DISL,ioos:station:DISL:MHPA:1,2009-12-02T18:30:00Z,30.6671,-87.9365,16.39,1111122 
DISL,ioos:station:DISL:MHPA:1,2009-12-02T19:00:00Z,30.6671,-87.9365,16.34,1111122 
DISL,ioos:station:DISL:MHPA:1,2009-12-02T19:30:00Z,30.6671,-87.9365,16.31,1111122 
DISL,ioos:station:DISL:MHPA:1,2009-12-02T20:00:00Z,30.6671,-87.9365,16.17,1111122 
DISL,ioos:station:DISL:MHPA:1,2009-12-02T20:30:00Z,30.6671,-87.9365,16.28,1111122 
DISL,ioos:station:DISL:MHPA:1,2009-12-02T21:00:00Z,30.6671,-87.9365,16.87,1111122 
DISL,ioos:station:DISL:MHPA:1,2009-12-02T21:30:00Z,30.6671,-87.9365,16.8,1111122 
DISL,ioos:station:DISL:MHPA:1,2009-12-02T22:00:00Z,30.6671,-87.9365,16.71,1111122 
DISL,ioos:station:DISL:MHPA:1,2009-12-02T22:30:00Z,30.6671,-87.9365,16.57,1111122 
DISL,ioos:station:DISL:MHPA:1,2009-12-02T23:00:00Z,30.6671,-87.9365,16.36,1111122 
DISL,ioos:station:DISL:MHPA:1,2009-12-02T23:30:00Z,30.6671,-87.9365,16.19,1111122 
DISL,ioos:station:DISL:MHPA:1,2009-12-03T00:00:00Z,30.6671,-87.9365,16.27,1111122 
DISL,ioos:station:DISL:MHPA:1,2009-12-03T00:30:00Z,30.6671,-87.9365,15.87,1111122 
DISL,ioos:station:DISL:MHPA:1,2009-12-03T01:00:00Z,30.6671,-87.9365,15.53,1111122 
DISL,ioos:station:DISL:MHPA:1,2009-12-03T01:30:00Z,30.6671,-87.9365,15.27,1111122 
DISL,ioos:station:DISL:MHPA:1,2009-12-03T02:00:00Z,30.6671,-87.9365,14.51,1111122 
DISL,ioos:station:DISL:MHPA:1,2009-12-03T02:30:00Z,30.6671,-87.9365,14.02,1111122 
DISL,ioos:station:DISL:MHPA:1,2009-12-03T03:00:00Z,30.6671,-87.9365,13.95,1111122 
DISL,ioos:station:DISL:MHPA:1,2009-12-03T03:30:00Z,30.6671,-87.9365,13.34,1111122 
DISL,ioos:station:DISL:MHPA:1,2009-12-03T04:00:00Z,30.6671,-87.9365,12.85,1111122 
DISL,ioos:station:DISL:MHPA:1,2009-12-03T04:30:00Z,30.6671,-87.9365,12.32,1111122 
DISL,ioos:station:DISL:MHPA:1,2009-12-03T05:00:00Z,30.6671,-87.9365,11.8,1111122 
DISL,ioos:station:DISL:MHPA:1,2009-12-03T05:30:00Z,30.6671,-87.9365,11.56,1111122 
DISL,ioos:station:DISL:MHPA:1,2009-12-03T06:00:00Z,30.6671,-87.9365,11.27,1111122 
DISL,ioos:station:DISL:MHPA:1,2009-12-03T06:30:00Z,30.6671,-87.9365,11.06,1111122 
DISL,ioos:station:DISL:MHPA:1,2009-12-03T07:00:00Z,30.6671,-87.9365,11.15,1111122 
DISL,ioos:station:DISL:MHPA:1,2009-12-03T07:30:00Z,30.6671,-87.9365,11.05,1111122 
DISL,ioos:station:DISL:MHPA:1,2009-12-03T08:00:00Z,30.6671,-87.9365,10.93,1111122 
DISL,ioos:station:DISL:MHPA:1,2009-12-03T08:30:00Z,30.6671,-87.9365,10.51,1111122 
DISL,ioos:station:DISL:MHPA:1,2009-12-03T09:00:00Z,30.6671,-87.9365,10.33,1111122 
DISL,ioos:station:DISL:MHPA:1,2009-12-03T09:30:00Z,30.6671,-87.9365,9.96,1111122 
DISL,ioos:station:DISL:MHPA:1,2009-12-03T10:00:00Z,30.6671,-87.9365,9.88,1111122 
DISL,ioos:station:DISL:MHPA:1,2009-12-03T10:30:00Z,30.6671,-87.9365,9.87,1111122 
DISL,ioos:station:DISL:MHPA:1,2009-12-03T11:00:00Z,30.6671,-87.9365,9.68,1111122 
DISL,ioos:station:DISL:MHPA:1,2009-12-03T11:30:00Z,30.6671,-87.9365,9.47,1111122 
DISL,ioos:station:DISL:MHPA:1,2009-12-03T12:00:00Z,30.6671,-87.9365,9.34,1111122 
DISL,ioos:station:DISL:MHPA:1,2009-12-03T12:30:00Z,30.6671,-87.9365,9.17,1111122 
DISL,ioos:station:DISL:MHPA:1,2009-12-03T13:00:00Z,30.6671,-87.9365,9.1,1111122 
DISL,ioos:station:DISL:MHPA:1,2009-12-03T13:30:00Z,30.6671,-87.9365,8.83,1111122 
DISL,ioos:station:DISL:MHPA:1,2009-12-03T14:00:00Z,30.6671,-87.9365,8.67,1111122 
DISL,ioos:station:DISL:MHPA:1,2009-12-03T14:30:00Z,30.6671,-87.9365,8.8,1111122 
DISL,ioos:station:DISL:MHPA:1,2009-12-03T15:00:00Z,30.6671,-87.9365,9.13,1111122 
DISL,ioos:station:DISL:MHPA:1,2009-12-03T15:30:00Z,30.6671,-87.9365,9.0,1111122 
DISL,ioos:station:DISL:MHPA:1,2009-12-03T16:00:00Z,30.6671,-87.9365,9.28,1111122 
DISL,ioos:station:DISL:MHPA:1,2009-12-03T16:30:00Z,30.6671,-87.9365,9.31,1111122 
DISL,ioos:station:DISL:MHPA:1,2009-12-03T17:00:00Z,30.6671,-87.9365,9.29,1111122 
DISL,ioos:station:DISL:MHPA:1,2009-12-03T17:30:00Z,30.6671,-87.9365,9.32,1111122 
DISL,ioos:station:DISL:MHPA:1,2009-12-03T18:00:00Z,30.6671,-87.9365,9.22,1111122 
DISL,ioos:station:DISL:MHPA:1,2009-12-03T18:30:00Z,30.6671,-87.9365,9.16,1111122 
DISL,ioos:station:DISL:MHPA:1,2009-12-03T19:00:00Z,30.6671,-87.9365,9.29,1111122 
DISL,ioos:station:DISL:MHPA:1,2009-12-03T19:30:00Z,30.6671,-87.9365,9.56,1111122 
DISL,ioos:station:DISL:MHPA:1,2009-12-03T20:00:00Z,30.6671,-87.9365,9.84,1111122 
DISL,ioos:station:DISL:MHPA:1,2009-12-03T20:30:00Z,30.6671,-87.9365,9.9,1111122 
DISL,ioos:station:DISL:MHPA:1,2009-12-03T21:00:00Z,30.6671,-87.9365,10.12,1111122 
DISL,ioos:station:DISL:MHPA:1,2009-12-03T21:30:00Z,30.6671,-87.9365,9.98,1111122 
DISL,ioos:station:DISL:MHPA:1,2009-12-03T22:00:00Z,30.6671,-87.9365,9.61,1111122 
DISL,ioos:station:DISL:MHPA:1,2009-12-03T22:30:00Z,30.6671,-87.9365,9.06,1111122 
DISL,ioos:station:DISL:MHPA:1,2009-12-03T23:00:00Z,30.6671,-87.9365,8.69,1111122 
DISL,ioos:station:DISL:MHPA:1,2009-12-03T23:30:00Z,30.6671,-87.9365,8.54,1111122 
DISL,ioos:station:DISL:MHPA:1,2009-12-04T00:00:00Z,30.6671,-87.9365,8.61,1111122 
DISL,ioos:station:DISL:MHPA:1,2009-12-04T00:30:00Z,30.6671,-87.9365,8.53,1111122 
DISL,ioos:station:DISL:MHPA:1,2009-12-04T01:00:00Z,30.6671,-87.9365,8.6,1111122 
DISL,ioos:station:DISL:MHPA:1,2009-12-04T01:30:00Z,30.6671,-87.9365,8.49,1111122 
DISL,ioos:station:DISL:MHPA:1,2009-12-04T02:00:00Z,30.6671,-87.9365,8.49,1111122 
DISL,ioos:station:DISL:MHPA:1,2009-12-04T02:30:00Z,30.6671,-87.9365,8.52,1111122 
DISL,ioos:station:DISL:MHPA:1,2009-12-04T03:00:00Z,30.6671,-87.9365,8.52,1111122 
DISL,ioos:station:DISL:MHPA:1,2009-12-04T03:30:00Z,30.6671,-87.9365,8.47,1111122 
DISL,ioos:station:DISL:MHPA:1,2009-12-04T04:00:00Z,30.6671,-87.9365,8.35,1111122 
DISL,ioos:station:DISL:MHPA:1,2009-12-04T04:30:00Z,30.6671,-87.9365,8.24,1111122 
DISL,ioos:station:DISL:MHPA:1,2009-12-04T05:00:00Z,30.6671,-87.9365,8.11,1111122 
DISL,ioos:station:DISL:MHPA:1,2009-12-04T05:30:00Z,30.6671,-87.9365,8.02,1111122 
DISL,ioos:station:DISL:MHPA:1,2009-12-04T06:00:00Z,30.6671,-87.9365,7.94,1111122 
DISL,ioos:station:DISL:MHPA:1,2009-12-04T06:30:00Z,30.6671,-87.9365,7.8,1111122 
DISL,ioos:station:DISL:MHPA:1,2009-12-04T07:00:00Z,30.6671,-87.9365,7.6,1111122 
DISL,ioos:station:DISL:MHPA:1,2009-12-04T07:30:00Z,30.6671,-87.9365,7.44,1111122 
DISL,ioos:station:DISL:MHPA:1,2009-12-04T08:00:00Z,30.6671,-87.9365,7.29,1111122 
DISL,ioos:station:DISL:MHPA:1,2009-12-04T08:30:00Z,30.6671,-87.9365,6.869,1111122 
DISL,ioos:station:DISL:MHPA:1,2009-12-04T09:00:00Z,30.6671,-87.9365,6.946,1111122 
DISL,ioos:station:DISL:MHPA:1,2009-12-04T09:30:00Z,30.6671,-87.9365,7.06,1111122 
DISL,ioos:station:DISL:MHPA:1,2009-12-04T10:00:00Z,30.6671,-87.9365,7.2,1111122 
DISL,ioos:station:DISL:MHPA:1,2009-12-04T10:30:00Z,30.6671,-87.9365,7.18,1111122 
DISL,ioos:station:DISL:MHPA:1,2009-12-04T11:00:00Z,30.6671,-87.9365,7.14,1111122 
DISL,ioos:station:DISL:MHPA:1,2009-12-04T11:30:00Z,30.6671,-87.9365,7.05,1111122 
DISL,ioos:station:DISL:MHPA:1,2009-12-04T12:00:00Z,30.6671,-87.9365,6.965,1111122 
DISL,ioos:station:DISL:MHPA:1,2009-12-04T12:30:00Z,30.6671,-87.9365,6.803,1111122 
DISL,ioos:station:DISL:MHPA:1,2009-12-04T13:00:00Z,30.6671,-87.9365,6.637,1111122 
DISL,ioos:station:DISL:MHPA:1,2009-12-04T13:30:00Z,30.6671,-87.9365,6.656,1111122 
DISL,ioos:station:DISL:MHPA:1,2009-12-04T14:00:00Z,30.6671,-87.9365,6.454,1111122 
DISL,ioos:station:DISL:MHPA:1,2009-12-04T14:30:00Z,30.6671,-87.9365,6.503,1111122 
DISL,ioos:station:DISL:MHPA:1,2009-12-04T15:00:00Z,30.6671,-87.9365,6.869,1111122 
DISL,ioos:station:DISL:MHPA:1,2009-12-04T15:30:00Z,30.6671,-87.9365,6.965,1111122 
DISL,ioos:station:DISL:MHPA:1,2009-12-04T16:00:00Z,30.6671,-87.9365,7.05,1111122 
DISL,ioos:station:DISL:MHPA:1,2009-12-04T16:30:00Z,30.6671,-87.9365,7.71,1111122 
DISL,ioos:station:DISL:MHPA:1,2009-12-04T17:00:00Z,30.6671,-87.9365,8.22,1111122 
DISL,ioos:station:DISL:MHPA:1,2009-12-04T17:30:00Z,30.6671,-87.9365,8.66,1111122 
DISL,ioos:station:DISL:MHPA:1,2009-12-04T18:00:00Z,30.6671,-87.9365,8.96,1111122 
DISL,ioos:station:DISL:MHPA:1,2009-12-04T18:30:00Z,30.6671,-87.9365,9.7,1111122 
DISL,ioos:station:DISL:MHPA:1,2009-12-04T19:00:00Z,30.6671,-87.9365,9.9,1111122 
DISL,ioos:station:DISL:MHPA:1,2009-12-04T19:30:00Z,30.6671,-87.9365,10.63,1111122 
DISL,ioos:station:DISL:MHPA:1,2009-12-04T20:00:00Z,30.6671,-87.9365,10.21,1111122 
DISL,ioos:station:DISL:MHPA:1,2009-12-04T20:30:00Z,30.6671,-87.9365,10.4,1111122 
DISL,ioos:station:DISL:MHPA:1,2009-12-04T21:00:00Z,30.6671,-87.9365,11.17,1111122 
DISL,ioos:station:DISL:MHPA:1,2009-12-04T21:30:00Z,30.6671,-87.9365,11.65,1111122 
DISL,ioos:station:DISL:MHPA:1,2009-12-04T22:00:00Z,30.6671,-87.9365,11.32,1111122 
DISL,ioos:station:DISL:MHPA:1,2009-12-04T22:30:00Z,30.6671,-87.9365,10.65,1111122 
DISL,ioos:station:DISL:MHPA:1,2009-12-04T23:00:00Z,30.6671,-87.9365,10.37,1111122 
DISL,ioos:station:DISL:MHPA:1,2009-12-04T23:30:00Z,30.6671,-87.9365,10.15,1111122 
DISL,ioos:station:DISL:MHPA:1,2009-12-05T00:00:00Z,30.6671,-87.9365,9.8,1111122 
DISL,ioos:station:DISL:MHPA:1,2009-12-05T00:30:00Z,30.6671,-87.9365,9.46,1111122 
DISL,ioos:station:DISL:MHPA:1,2009-12-05T01:00:00Z,30.6671,-87.9365,9.13,1111122 
DISL,ioos:station:DISL:MHPA:1,2009-12-05T01:30:00Z,30.6671,-87.9365,8.81,1111122 
DISL,ioos:station:DISL:MHPA:1,2009-12-05T02:00:00Z,30.6671,-87.9365,8.64,1111122 
DISL,ioos:station:DISL:MHPA:1,2009-12-05T02:30:00Z,30.6671,-87.9365,8.49,1111122 
DISL,ioos:station:DISL:MHPA:1,2009-12-05T03:00:00Z,30.6671,-87.9365,7.86,1111122 
DISL,ioos:station:DISL:MHPA:1,2009-12-05T03:30:00Z,30.6671,-87.9365,7.44,1111122 
DISL,ioos:station:DISL:MHPA:1,2009-12-05T04:00:00Z,30.6671,-87.9365,7.03,1111122 
DISL,ioos:station:DISL:MHPA:1,2009-12-05T04:30:00Z,30.6671,-87.9365,5.531,1111122 
DISL,ioos:station:DISL:MHPA:1,2009-12-05T05:00:00Z,30.6671,-87.9365,4.383,1111122 
DISL,ioos:station:DISL:MHPA:1,2009-12-05T05:30:00Z,30.6671,-87.9365,4.162,1111122 
DISL,ioos:station:DISL:MHPA:1,2009-12-05T06:00:00Z,30.6671,-87.9365,3.972,1111122 
DISL,ioos:station:DISL:MHPA:1,2009-12-05T06:30:00Z,30.6671,-87.9365,3.875,1111122 
DISL,ioos:station:DISL:MHPA:1,2009-12-05T07:00:00Z,30.6671,-87.9365,3.751,1111122 
DISL,ioos:station:DISL:MHPA:1,2009-12-05T07:30:00Z,30.6671,-87.9365,3.56,1111122 
DISL,ioos:station:DISL:MHPA:1,2009-12-05T08:00:00Z,30.6671,-87.9365,3.589,1111122 
DISL,ioos:station:DISL:MHPA:1,2009-12-05T08:30:00Z,30.6671,-87.9365,3.57,1111122 
DISL,ioos:station:DISL:MHPA:1,2009-12-05T09:00:00Z,30.6671,-87.9365,3.369,1111122 
DISL,ioos:station:DISL:MHPA:1,2009-12-05T09:30:00Z,30.6671,-87.9365,3.16,1111122 
DISL,ioos:station:DISL:MHPA:1,2009-12-05T10:00:00Z,30.6671,-87.9365,3.055,1111122 
DISL,ioos:station:DISL:MHPA:1,2009-12-05T10:30:00Z,30.6671,-87.9365,3.036,1111122 
DISL,ioos:station:DISL:MHPA:1,2009-12-05T11:00:00Z,30.6671,-87.9365,2.951,1111122 
DISL,ioos:station:DISL:MHPA:1,2009-12-05T11:30:00Z,30.6671,-87.9365,2.827,1111122 
DISL,ioos:station:DISL:MHPA:1,2009-12-05T12:00:00Z,30.6671,-87.9365,2.827,1111122 
DISL,ioos:station:DISL:MHPA:1,2009-12-05T12:30:00Z,30.6671,-87.9365,2.779,1111122 
DISL,ioos:station:DISL:MHPA:1,2009-12-05T13:00:00Z,30.6671,-87.9365,2.665,1111122 
DISL,ioos:station:DISL:MHPA:1,2009-12-05T13:30:00Z,30.6671,-87.9365,2.551,1111122 
DISL,ioos:station:DISL:MHPA:1,2009-12-05T14:00:00Z,30.6671,-87.9365,2.427,1111122 
DISL,ioos:station:DISL:MHPA:1,2009-12-05T14:30:00Z,30.6671,-87.9365,2.513,1111122 
DISL,ioos:station:DISL:MHPA:1,2009-12-05T15:00:00Z,30.6671,-87.9365,2.798,1111122 
DISL,ioos:station:DISL:MHPA:1,2009-12-05T15:30:00Z,30.6671,-87.9365,2.941,1111122 
DISL,ioos:station:DISL:MHPA:1,2009-12-05T16:00:00Z,30.6671,-87.9365,3.246,1111122 
DISL,ioos:station:DISL:MHPA:1,2009-12-05T16:30:00Z,30.6671,-87.9365,3.608,1111122 
DISL,ioos:station:DISL:MHPA:1,2009-12-05T17:00:00Z,30.6671,-87.9365,4.333,1111122 
DISL,ioos:station:DISL:MHPA:1,2009-12-05T17:30:00Z,30.6671,-87.9365,4.966,1111122 
DISL,ioos:station:DISL:MHPA:1,2009-12-05T18:00:00Z,30.6671,-87.9365,5.848,1111122 
DISL,ioos:station:DISL:MHPA:1,2009-12-05T18:30:00Z,30.6671,-87.9365,6.774,1111122 
DISL,ioos:station:DISL:MHPA:1,2009-12-05T19:00:00Z,30.6671,-87.9365,7.45,1111122 
DISL,ioos:station:DISL:MHPA:1,2009-12-05T19:30:00Z,30.6671,-87.9365,7.94,1111122 
DISL,ioos:station:DISL:MHPA:1,2009-12-05T20:00:00Z,30.6671,-87.9365,8.6,1111122 
DISL,ioos:station:DISL:MHPA:1,2009-12-05T20:30:00Z,30.6671,-87.9365,8.94,1111122 
DISL,ioos:station:DISL:MHPA:1,2009-12-05T21:00:00Z,30.6671,-87.9365,9.08,1111122 
DISL,ioos:station:DISL:MHPA:1,2009-12-05T21:30:00Z,30.6671,-87.9365,9.38,1111122 
DISL,ioos:station:DISL:MHPA:1,2009-12-05T22:00:00Z,30.6671,-87.9365,9.12,1111122 
DISL,ioos:station:DISL:MHPA:1,2009-12-05T22:30:00Z,30.6671,-87.9365,8.34,1111122 
DISL,ioos:station:DISL:MHPA:1,2009-12-05T23:00:00Z,30.6671,-87.9365,7.08,1111122 
DISL,ioos:station:DISL:MHPA:1,2009-12-05T23:30:00Z,30.6671,-87.9365,6.582,1111122 
DISL,ioos:station:DISL:MHPA:1,2009-12-06T00:00:00Z,30.6671,-87.9365,5.857,1111122 
DISL,ioos:station:DISL:MHPA:1,2009-12-06T00:30:00Z,30.6671,-87.9365,5.443,1111122 
DISL,ioos:station:DISL:MHPA:1,2009-12-06T01:00:00Z,30.6671,-87.9365,4.907,1111122 
DISL,ioos:station:DISL:MHPA:1,2009-12-06T01:30:00Z,30.6671,-87.9365,4.705,1111122 
DISL,ioos:station:DISL:MHPA:1,2009-12-06T02:00:00Z,30.6671,-87.9365,4.246,1111122 
DISL,ioos:station:DISL:MHPA:1,2009-12-06T02:30:00Z,30.6671,-87.9365,4.495,1111122 
DISL,ioos:station:DISL:MHPA:1,2009-12-06T03:00:00Z,30.6671,-87.9365,3.664,1111122 
DISL,ioos:station:DISL:MHPA:1,2009-12-06T03:30:00Z,30.6671,-87.9365,3.636,1111122 
DISL,ioos:station:DISL:MHPA:1,2009-12-06T04:00:00Z,30.6671,-87.9365,3.788,1111122 
DISL,ioos:station:DISL:MHPA:1,2009-12-06T04:30:00Z,30.6671,-87.9365,3.483,1111122 
DISL,ioos:station:DISL:MHPA:1,2009-12-06T05:00:00Z,30.6671,-87.9365,3.131,1111122 
DISL,ioos:station:DISL:MHPA:1,2009-12-06T05:30:00Z,30.6671,-87.9365,2.532,1111122 
DISL,ioos:station:DISL:MHPA:1,2009-12-06T06:00:00Z,30.6671,-87.9365,2.769,1111122 
DISL,ioos:station:DISL:MHPA:1,2009-12-06T06:30:00Z,30.6671,-87.9365,3.15,1111122 
DISL,ioos:station:DISL:MHPA:1,2009-12-06T07:00:00Z,30.6671,-87.9365,3.102,1111122 
DISL,ioos:station:DISL:MHPA:1,2009-12-06T07:30:00Z,30.6671,-87.9365,3.131,1111122 
DISL,ioos:station:DISL:MHPA:1,2009-12-06T08:00:00Z,30.6671,-87.9365,2.883,1111122 
DISL,ioos:station:DISL:MHPA:1,2009-12-06T08:30:00Z,30.6671,-87.9365,2.38,1111122 
DISL,ioos:station:DISL:MHPA:1,2009-12-06T09:00:00Z,30.6671,-87.9365,2.113,1111122 
DISL,ioos:station:DISL:MHPA:1,2009-12-06T09:30:00Z,30.6671,-87.9365,1.885,1111122 
DISL,ioos:station:DISL:MHPA:1,2009-12-06T10:00:00Z,30.6671,-87.9365,2.132,1111122 
DISL,ioos:station:DISL:MHPA:1,2009-12-06T10:30:00Z,30.6671,-87.9365,2.189,1111122 
DISL,ioos:station:DISL:MHPA:1,2009-12-06T11:00:00Z,30.6671,-87.9365,2.028,1111122 
DISL,ioos:station:DISL:MHPA:1,2009-12-06T11:30:00Z,30.6671,-87.9365,1.876,1111122 
DISL,ioos:station:DISL:MHPA:1,2009-12-06T12:00:00Z,30.6671,-87.9365,1.923,1111122 
DISL,ioos:station:DISL:MHPA:1,2009-12-06T12:30:00Z,30.6671,-87.9365,2.294,1111122 
DISL,ioos:station:DISL:MHPA:1,2009-12-06T13:00:00Z,30.6671,-87.9365,2.284,1111122 
DISL,ioos:station:DISL:MHPA:1,2009-12-06T13:30:00Z,30.6671,-87.9365,2.284,1111122 
DISL,ioos:station:DISL:MHPA:1,2009-12-06T14:00:00Z,30.6671,-87.9365,3.407,1111122 
DISL,ioos:station:DISL:MHPA:1,2009-12-06T14:30:00Z,30.6671,-87.9365,3.95,1111122 
DISL,ioos:station:DISL:MHPA:1,2009-12-06T15:00:00Z,30.6671,-87.9365,4.972,1111122 
DISL,ioos:station:DISL:MHPA:1,2009-12-06T15:30:00Z,30.6671,-87.9365,6.616,1111122 
DISL,ioos:station:DISL:MHPA:1,2009-12-06T16:00:00Z,30.6671,-87.9365,7.5,1111122 
DISL,ioos:station:DISL:MHPA:1,2009-12-06T16:30:00Z,30.6671,-87.9365,8.69,1111122 
DISL,ioos:station:DISL:MHPA:1,2009-12-06T17:00:00Z,30.6671,-87.9365,8.71,1111122 
DISL,ioos:station:DISL:MHPA:1,2009-12-06T17:30:00Z,30.6671,-87.9365,9.2,1111122 
DISL,ioos:station:DISL:MHPA:1,2009-12-06T18:00:00Z,30.6671,-87.9365,10.25,1111122 
DISL,ioos:station:DISL:MHPA:1,2009-12-06T18:30:00Z,30.6671,-87.9365,10.97,1111122 
DISL,ioos:station:DISL:MHPA:1,2009-12-06T19:00:00Z,30.6671,-87.9365,11.19,1111122 
DISL,ioos:station:DISL:MHPA:1,2009-12-06T19:30:00Z,30.6671,-87.9365,11.57,1111122 
DISL,ioos:station:DISL:MHPA:1,2009-12-06T20:00:00Z,30.6671,-87.9365,11.84,1111122 
DISL,ioos:station:DISL:MHPA:1,2009-12-06T20:30:00Z,30.6671,-87.9365,11.72,1111122 
DISL,ioos:station:DISL:MHPA:1,2009-12-06T21:00:00Z,30.6671,-87.9365,12.61,1111122 
DISL,ioos:station:DISL:MHPA:1,2009-12-06T21:30:00Z,30.6671,-87.9365,11.91,1111122 
DISL,ioos:station:DISL:MHPA:1,2009-12-06T22:00:00Z,30.6671,-87.9365,12.59,1111122 
DISL,ioos:station:DISL:MHPA:1,2009-12-06T22:30:00Z,30.6671,-87.9365,11.74,1111122 
DISL,ioos:station:DISL:MHPA:1,2009-12-06T23:00:00Z,30.6671,-87.9365,10.27,1111122 
DISL,ioos:station:DISL:MHPA:1,2009-12-06T23:30:00Z,30.6671,-87.9365,9.4,1111122 
DISL,ioos:station:DISL:MHPA:1,2009-12-07T00:00:00Z,30.6671,-87.9365,8.7,1111122 
DISL,ioos:station:DISL:MHPA:1,2009-12-07T00:30:00Z,30.6671,-87.9365,8.09,1111122 